Wind_Speed
7 6 5 6 8 8 7 6 7 6 6 6 8 8 8 7 7 9 10 7 8 11 11 8 6 3 3 3 2 3 4 3 9 4 11 16 4 10 9 16 11 8 18 22 18
6 5 5 5 6 7 7 7 6 6 7 9 9 8 7 6 7 9 7 7 7 7 6 4 2 1 3 3 3 1 1 11 18 9 10 8 5 14 10 13 14 12 17 14 12
5 5 5 5 6 7 7 7 8 8 8 8 7 6 7 7 7 6 5 4 3 3 3 2 2 5 6 6 7 4 6 28 17 19 14 11 16 14 8 15 10 10 12 9 8
5 5 5 7 8 8 9 9 9 9 8 8 7 7 7 6 8 5 4 3 3 3 3 2 2 2 3 5 5 11 18 19 18 13 15 13 14 10 10 12 8 8 7 6 7
5 6 7 8 9 10 10 10 9 8 8 8 7 7 6 5 4 3 3 4 3 2 2 1 1 2 3 7 6 6 10 13 12 11 11 9 11 7 7 8 9 11 11 11 10
7 7 9 10 10 10 9 8 8 8 7 7 6 5 5 3 2 2 3 3 3 3 3 3 4 5 6 6 6 10 11 11 10 12 9 10 8 9 8 10 10 12 13 14 15
8 9 10 10 10 9 9 8 7 7 6 6 5 4 3 3 4 3 4 5 5 6 5 5 6 7 8 10 11 11 11 13 11 11 10 9 13 9 10 11 12 14 16 19 23
10 10 11 10 9 9 8 7 6 5 5 4 2 1 2 3 5 5 5 6 6 8 8 8 8 8 10 11 12 10 6 6 24 12 12 10 15 11 13 14 15 18 21 24 27
11 12 12 11 10 9 8 6 4 4 3 3 2 3 4 5 5 6 6 7 7 8 10 11 11 11 11 11 9 12 5 8 25 18 19 16 17 15 19 20 23 25 28 31 32
12 13 13 13 12 11 10 7 6 5 5 4 4 6 7 7 7 8 9 9 10 11 12 11 9 10 9 4 5 14 9 15 13 26 16 17 23 20 22 24 27 31 34 35 36
12 14 15 15 14 13 11 10 9 9 8 7 8 9 10 11 11 10 11 11 12 13 11 9 6 8 21 16 18 22 23 16 16 25 19 21 25 24 24 27 30 34 34 35 37
14 14 16 16 16 15 14 13 12 11 12 12 12 13 12 12 13 11 12 13 12 11 11 12 9 12 17 17 17 19 20 14 21 25 17 23 24 26 29 27 29 33 36 38 42
13 16 16 15 16 16 16 16 15 15 16 16 15 14 13 13 13 10 11 12 11 11 10 8 17 16 15 16 16 16 19 20 20 24 20 23 26 33 28 29 30 32 37 41 41
11 13 14 16 17 18 18 17 17 17 18 16 16 14 13 12 12 12 11 11 10 12 13 17 19 18 17 18 14 15 16 18 19 20 19 25 23 30 38 30 31 35 38 42 43
11 12 12 15 16 16 17 17 16 15 8 18 13 11 10 12 13 13 12 11 13 15 15 23 19 21 20 19 17 19 15 16 18 20 23 21 21 18 33 32 41 44 39 41 44
12 12 13 13 13 15 15 15 14 13 13 16 13 11 11 13 13 13 13 14 16 18 18 23 22 21 20 20 17 16 17 19 21 22 19 14 12 16 24 35 36 46 47 46 45
12 12 13 13 13 13 14 14 13 11 21 18 15 12 13 13 13 13 14 16 16 17 18 25 22 19 19 18 18 19 19 14 13 12 11 26 30 19 30 30 36 40 44 49 51
13 12 12 12 14 14 13 13 13 16 15 15 14 13 13 15 15 15 15 16 15 18 15 14 23 22 15 18 19 18 17 18 17 12 15 24 24 24 40 39 41 44 46 50 54
16 14 13 12 12 13 14 13 13 18 17 15 15 16 17 17 17 16 17 18 19 19 19 19 19 20 21 20 18 18 18 20 21 21 24 14 17 30 40 45 48 54 57 59 64
19 17 15 14 12 12 13 17 17 17 16 16 15 16 13 18 14 17 18 14 19 20 21 24 21 23 20 19 19 19 21 22 24 24 23 14 19 22 37 42 46 48 53 61 65
20 20 18 16 15 15 14 18 16 16 16 16 17 17 19 20 16 18 19 17 17 17 18 18 18 23 19 19 22 21 23 21 21 22 24 29 19 38 40 46 49 54 59 65 70
21 22 20 18 17 17 18 17 16 16 16 17 18 18 19 18 16 17 17 16 16 17 19 18 21 22 23 22 22 22 23 24 26 25 26 31 33 43 45 52 58 63 66 69 71
23 23 22 21 21 20 18 18 17 16 15 16 17 18 18 17 16 16 17 17 19 20 20 20 22 23 24 23 22 20 24 25 26 27 27 31 37 41 45 49 54 60 65 71 73
25 24 23 23 23 23 21 19 19 18 17 17 16 17 17 17 16 17 20 19 20 20 21 22 23 23 20 24 26 26 25 26 28 29 33 31 39 43 48 53 57 62 67 71 70
28 27 25 25 26 26 24 23 22 20 19 19 18 17 17 17 17 19 19 19 20 21 21 22 22 23 22 22 24 24 25 27 28 30 34 38 42 47 51 55 59 64 70 72 62
30 28 27 27 25 26 27 26 24 22 20 19 18 18 18 18 18 18 19 21 22 21 23 23 22 22 21 23 24 25 25 27 28 32 36 39 43 49 53 57 61 65 71 70 57
33 31 29 29 28 26 29 29 27 25 21 20 19 19 19 19 19 19 19 22 23 24 24 24 23 22 20 26 25 26 23 28 30 33 38 42 46 52 55 58 62 66 70 66 56
Wind_Direction
192 202 211 208 204 207 217 202 184 184 175 165 167 169 167 162 154 150 155 154 147 143 143 130 118 104 66 44 55 102 130 250 250 244 243 270 302 295 300 293 287 275 268 294 311
193 202 213 210 205 197 178 174 173 168 157 156 157 159 159 155 156 154 164 159 147 149 152 151 123 339 333 303 276 262 21 238 220 212 259 255 271 275 302 295 297 293 271 285 303
197 199 200 194 177 165 163 157 148 145 146 149 149 151 148 149 155 156 167 158 159 159 190 230 242 291 307 279 260 280 215 239 246 254 237 257 290 270 249 256 289 274 298 306 307
187 187 184 168 157 151 145 140 138 137 139 138 140 147 155 164 173 175 175 178 202 228 243 254 280 349 311 276 267 237 245 258 275 271 252 253 258 265 246 268 265 255 265 292 301
174 161 156 152 146 141 137 135 134 135 139 142 146 152 165 176 190 184 200 212 218 241 278 315 339 312 266 294 295 240 270 261 270 264 254 259 258 261 245 259 253 251 256 261 270
171 159 153 149 143 139 137 134 131 135 137 135 139 153 172 180 192 209 250 267 259 258 271 284 298 288 275 271 248 261 267 271 275 281 266 269 261 275 268 265 259 260 271 274 273
172 163 157 153 150 147 141 139 142 141 137 137 145 164 184 172 195 239 267 279 288 293 290 281 275 275 272 262 260 264 281 280 279 283 287 294 286 281 290 293 289 278 277 281 279
174 171 168 166 163 158 157 159 158 153 150 146 145 208 218 218 218 238 250 268 291 301 300 291 283 277 275 280 278 280 240 284 281 290 274 278 275 298 295 291 287 282 281 280 281
181 180 181 182 180 178 181 182 174 172 173 178 212 245 246 257 274 273 277 280 284 289 294 293 291 289 282 287 296 303 224 247 274 271 283 290 277 310 303 305 304 301 297 293 291
192 192 195 198 198 200 203 204 211 219 222 235 257 274 279 280 280 276 279 283 288 295 297 290 291 295 296 265 256 266 264 257 246 281 290 284 282 295 299 301 302 303 302 300 300
202 203 206 210 214 217 223 226 231 245 257 268 274 283 289 288 283 276 279 285 293 300 301 297 297 231 225 256 251 233 251 256 260 278 282 278 285 294 298 299 301 297 297 298 298
212 213 216 219 224 229 236 242 248 258 269 276 280 284 288 287 285 283 284 289 296 302 302 300 252 286 274 271 265 259 258 264 262 280 281 283 291 295 294 300 298 301 303 300 298
217 222 226 229 232 236 241 245 250 259 268 271 277 283 287 288 287 285 282 289 295 292 295 264 293 297 291 283 272 266 258 248 268 276 291 279 290 295 299 304 300 301 300 301 300
218 225 229 233 236 239 241 244 249 259 271 268 275 281 287 285 285 286 286 288 285 291 293 288 296 298 296 290 274 264 266 265 270 274 284 289 295 293 300 309 305 307 308 307 306
225 224 228 231 235 239 245 248 251 255 261 274 279 278 277 277 282 285 287 289 295 298 301 288 303 303 296 295 281 267 275 276 282 289 291 288 280 285 303 307 313 310 310 308 308
235 231 231 234 236 238 242 245 246 247 245 265 269 274 273 272 277 282 289 297 304 307 307 299 301 299 298 298 291 286 287 290 289 290 294 291 250 287 286 315 317 314 314 313 313
242 238 235 235 237 239 240 242 244 231 257 265 268 271 272 273 276 276 289 298 302 306 323 307 302 298 299 295 293 282 283 287 292 280 316 277 290 285 303 315 315 316 318 316 316
245 244 239 238 237 240 241 242 243 235 254 263 260 262 261 268 273 279 288 293 289 294 282 275 294 308 290 285 283 284 284 285 287 263 270 285 299 285 308 322 321 319 318 318 320
242 245 246 245 241 240 240 240 237 247 256 255 258 262 265 269 275 281 282 281 287 283 280 272 274 291 290 285 280 282 281 290 293 298 308 308 295 309 318 325 323 324 328 327 326
241 244 245 244 242 242 242 244 255 254 254 255 255 260 246 271 275 277 277 281 277 278 279 283 276 288 286 285 287 289 293 296 303 310 314 292 313 277 319 321 322 322 323 325 324
241 241 243 244 242 242 242 248 251 252 253 253 255 260 257 264 267 269 274 282 279 279 281 285 285 289 292 291 293 291 293 294 300 301 308 310 305 308 320 319 321 326 325 323 323
243 241 241 241 241 240 240 247 252 251 251 254 254 255 258 263 263 266 274 287 289 292 291 287 287 291 294 297 292 292 294 299 302 308 319 316 323 318 319 327 332 328 325 324 323
242 241 239 238 236 237 243 246 251 255 259 260 260 259 261 265 269 274 280 290 295 296 295 292 290 291 294 290 288 294 295 295 298 301 310 313 321 325 322 321 323 324 324 325 325
242 241 239 237 239 241 242 244 251 257 260 261 262 262 264 266 271 278 285 292 293 293 294 294 290 288 286 280 294 300 301 300 301 305 309 318 318 321 323 324 326 324 325 326 328
240 241 240 237 237 238 241 242 247 251 256 258 259 259 263 268 272 278 286 291 293 293 294 291 288 288 288 288 289 293 296 296 301 306 309 316 319 320 323 324 325 324 327 330 330
241 240 241 241 239 239 240 241 245 250 253 257 259 260 263 266 272 278 285 291 294 294 297 297 290 287 290 291 292 294 295 295 297 300 304 313 317 319 322 323 326 326 330 332 330
241 243 242 242 241 239 241 239 242 248 251 253 254 259 261 268 272 280 289 295 294 294 295 296 289 288 293 293 295 297 302 294 298 302 307 312 317 318 323 326 328 329 333 333 329
Height
5887 5888 5889 5889 5890 5891 5892 5893 5894 5894 5895 5896 5898 5899 5899 5900 5901 5901 5902 5904 5905 5906 5906 5907 5908 5909 5910 5911 5912 5914 5918 5926 5926 5924 5917 5915 5916 5911 5911 5908 5908 5905 5901 5896 5895
5887 5887 5888 5889 5890 5890 5891 5893 5894 5895 5896 5897 5898 5899 5900 5901 5902 5902 5904 5904 5905 5907 5908 5908 5909 5910 5910 5912 5913 5914 5921 5924 5918 5919 5918 5913 5914 5910 5909 5906 5904 5903 5899 5898 5897
5886 5887 5887 5888 5889 5890 5892 5893 5894 5896 5897 5898 5899 5900 5901 5902 5903 5903 5904 5905 5906 5907 5908 5908 5909 5910 5911 5911 5913 5916 5920 5913 5914 5912 5913 5911 5908 5907 5907 5903 5903 5901 5899 5898 5897
5886 5886 5887 5888 5889 5891 5892 5894 5895 5897 5898 5898 5899 5900 5901 5902 5904 5903 5904 5905 5906 5906 5907 5908 5909 5909 5911 5911 5911 5912 5909 5909 5907 5908 5908 5908 5904 5902 5902 5902 5901 5899 5899 5898 5897
5886 5886 5887 5889 5890 5891 5893 5895 5896 5897 5898 5899 5900 5901 5902 5903 5904 5904 5905 5905 5906 5906 5907 5908 5908 5909 5910 5909 5909 5909 5906 5905 5905 5905 5904 5903 5902 5900 5900 5900 5899 5898 5898 5897 5896
5885 5886 5888 5889 5891 5892 5894 5895 5897 5898 5899 5900 5901 5902 5902 5904 5904 5904 5904 5905 5906 5906 5907 5907 5907 5908 5908 5908 5907 5905 5904 5902 5902 5901 5902 5901 5900 5899 5899 5898 5897 5897 5896 5895 5894
5885 5886 5888 5890 5891 5893 5894 5896 5897 5898 5899 5900 5901 5902 5902 5904 5903 5904 5904 5904 5904 5905 5906 5906 5906 5906 5906 5905 5904 5904 5902 5901 5900 5899 5899 5899 5898 5897 5897 5896 5896 5896 5895 5893 5891
5885 5886 5888 5890 5892 5893 5895 5896 5897 5899 5900 5901 5901 5902 5902 5903 5903 5903 5903 5903 5904 5904 5904 5903 5903 5904 5904 5903 5903 5902 5904 5905 5897 5898 5897 5898 5897 5895 5895 5895 5894 5893 5892 5890 5887
5885 5886 5888 5890 5892 5893 5895 5896 5898 5899 5900 5901 5902 5902 5902 5902 5903 5903 5902 5903 5903 5903 5902 5901 5900 5901 5901 5901 5901 5901 5905 5906 5898 5897 5894 5895 5894 5892 5890 5888 5886 5885 5883 5881 5879
5884 5886 5887 5889 5891 5893 5894 5896 5897 5898 5899 5900 5901 5902 5901 5902 5901 5901 5901 5901 5900 5900 5900 5899 5899 5899 5898 5900 5908 5908 5904 5901 5899 5891 5893 5892 5889 5887 5886 5884 5882 5878 5875 5872 5869
5884 5885 5887 5888 5890 5892 5894 5895 5898 5898 5898 5899 5900 5900 5900 5900 5899 5899 5898 5898 5898 5897 5897 5897 5898 5902 5896 5896 5896 5897 5896 5896 5895 5888 5889 5888 5885 5883 5882 5879 5876 5872 5869 5865 5862
5883 5884 5886 5887 5889 5891 5892 5894 5895 5896 5896 5896 5897 5897 5897 5897 5897 5896 5896 5896 5895 5894 5894 5895 5895 5894 5892 5891 5891 5891 5891 5892 5888 5884 5885 5883 5881 5878 5876 5874 5871 5866 5862 5857 5852
5882 5883 5884 5886 5888 5889 5890 5892 5893 5893 5894 5894 5894 5894 5895 5894 5893 5893 5894 5893 5892 5892 5892 5891 5890 5889 5889 5887 5887 5887 5885 5885 5884 5880 5879 5878 5876 5870 5871 5868 5864 5861 5854 5849 5845
5880 5881 5883 5884 5886 5886 5888 5889 5890 5891 5891 5892 5892 5892 5892 5891 5890 5890 5890 5891 5890 5889 5888 5887 5886 5885 5884 5883 5883 5882 5880 5879 5878 5877 5876 5871 5872 5864 5858 5861 5857 5853 5847 5841 5834
5878 5879 5880 5881 5883 5884 5885 5886 5888 5889 5892 5888 5889 5889 5889 5889 5887 5887 5887 5886 5886 5885 5886 5882 5881 5881 5879 5878 5877 5876 5875 5874 5873 5871 5869 5868 5865 5863 5856 5852 5845 5840 5839 5833 5826
5876 5877 5878 5879 5880 5881 5882 5883 5885 5888 5887 5885 5886 5886 5886 5885 5884 5883 5883 5883 5882 5880 5880 5877 5876 5875 5874 5872 5871 5870 5869 5868 5866 5865 5864 5863 5863 5862 5853 5845 5840 5831 5826 5821 5816
5873 5874 5875 5876 5877 5878 5879 5881 5883 5883 5882 5882 5882 5882 5882 5882 5881 5881 5880 5880 5879 5878 5876 5872 5870 5870 5869 5868 5866 5866 5865 5865 5864 5864 5864 5856 5853 5853 5844 5842 5836 5828 5820 5811 5805
5870 5871 5872 5873 5874 5875 5876 5878 5879 5879 5879 5879 5880 5880 5881 5880 5879 5879 5878 5877 5876 5874 5874 5875 5871 5866 5867 5865 5863 5862 5861 5860 5858 5859 5858 5852 5846 5838 5834 5830 5824 5817 5810 5801 5791
5867 5868 5869 5871 5871 5872 5874 5875 5877 5874 5876 5876 5877 5878 5877 5877 5877 5876 5875 5874 5873 5871 5871 5868 5867 5863 5861 5860 5860 5858 5856 5855 5852 5850 5846 5849 5843 5831 5824 5817 5810 5800 5792 5784 5775
5862 5864 5866 5867 5868 5869 5870 5870 5870 5871 5872 5873 5874 5875 5876 5873 5874 5872 5871 5871 5869 5867 5865 5863 5862 5858 5857 5856 5855 5853 5851 5849 5845 5843 5841 5843 5836 5827 5821 5813 5806 5798 5788 5778 5768
5858 5860 5861 5863 5865 5866 5866 5866 5866 5867 5868 5869 5869 5869 5870 5869 5869 5868 5866 5866 5864 5862 5860 5858 5857 5854 5853 5852 5849 5848 5845 5844 5841 5838 5835 5831 5832 5818 5812 5804 5796 5785 5776 5766 5754
5853 5854 5856 5858 5861 5861 5861 5862 5863 5862 5863 5864 5864 5864 5865 5864 5864 5863 5862 5860 5859 5857 5855 5854 5852 5850 5848 5847 5845 5843 5840 5837 5833 5832 5828 5822 5820 5809 5803 5791 5780 5771 5763 5754 5742
5847 5848 5851 5853 5855 5855 5856 5857 5857 5858 5859 5859 5859 5859 5860 5860 5860 5858 5857 5856 5854 5852 5850 5849 5846 5845 5842 5842 5839 5837 5834 5832 5829 5825 5823 5818 5812 5802 5796 5789 5780 5768 5757 5743 5728
5841 5843 5844 5847 5849 5850 5851 5852 5852 5853 5854 5854 5855 5854 5855 5855 5855 5854 5852 5851 5849 5847 5845 5843 5841 5839 5839 5836 5832 5830 5828 5825 5822 5818 5813 5811 5804 5797 5789 5779 5770 5758 5746 5731 5715
5833 5835 5838 5840 5841 5843 5845 5846 5847 5848 5849 5849 5850 5850 5850 5850 5850 5849 5847 5846 5844 5842 5840 5838 5836 5834 5832 5831 5828 5826 5823 5820 5816 5812 5807 5803 5797 5788 5780 5770 5761 5748 5734 5718 5704
5825 5828 5831 5833 5835 5837 5838 5841 5841 5842 5844 5844 5845 5845 5845 5845 5845 5844 5843 5841 5839 5837 5834 5832 5831 5829 5827 5825 5822 5821 5818 5815 5811 5807 5802 5796 5790 5781 5773 5763 5751 5737 5722 5707 5694
5817 5820 5823 5826 5828 5831 5832 5834 5835 5836 5838 5838 5839 5839 5840 5840 5839 5839 5837 5835 5833 5831 5829 5826 5824 5823 5822 5818 5817 5815 5814 5809 5805 5800 5795 5788 5781 5773 5764 5753 5740 5727 5711 5696 5684